| time (UTC) | temp C | wind direction | speed KPH | gust KPH | rain 1hr cm | rain 24hr cm | rain mn cm | humidity % | barometer mb |
| 20260507004105 | 25 | 282 | 9.7 | 19.3 | 0.00 | 0.00 | 0.00 | 35 | 1015.8 |
| 20260507003604 | 25 | 261 | 8.0 | 19.3 | 0.00 | 0.00 | 0.00 | 35 | 1015.8 |
| 20260507002604 | 25 | 322 | 11.3 | 19.3 | 0.00 | 0.00 | 0.00 | 32 | 1015.8 |
| 20260507001604 | 25 | 303 | 8.0 | 20.9 | 0.00 | 0.00 | 0.00 | 32 | 1015.8 |
| 20260507000603 | 25 | 294 | 8.0 | 19.3 | 0.00 | 0.00 | 0.00 | 32 | 1015.7 |
| 20260507000105 | 25 | 300 | 11.3 | 19.3 | 0.00 | 0.00 | 0.00 | 31 | 1015.8 |
| 20260506235604 | 25 | 320 | 8.0 | 19.3 | 0.00 | 0.00 | 0.00 | 32 | 1015.8 |
| 20260506234604 | 25 | 323 | 9.7 | 16.1 | 0.00 | 0.00 | 0.00 | 31 | 1015.6 |
| 20260506234104 | 25 | 309 | 9.7 | 20.9 | 0.00 | 0.00 | 0.00 | 32 | 1015.5 |
| 20260506233604 | 26 | 318 | 11.3 | 20.9 | 0.00 | 0.00 | 0.00 | 31 | 1015.7 |
| 20260506233104 | 26 | 276 | 8.0 | 16.1 | 0.00 | 0.00 | 0.00 | 30 | 1015.7 |
| 20260506232104 | 26 | 298 | 4.8 | 12.9 | 0.00 | 0.00 | 0.00 | 31 | 1015.7 |
| 20260506231604 | 25 | 265 | 3.2 | 12.9 | 0.00 | 0.00 | 0.00 | 31 | 1015.7 |
| 20260506230604 | 25 | 265 | 6.4 | 16.1 | 0.00 | 0.00 | 0.00 | 31 | 1015.9 |
| 20260506230105 | 25 | 0 | 4.8 | 14.5 | 0.00 | 0.00 | 0.00 | 30 | 1016.0 |
| 20260506225604 | 26 | 255 | 9.7 | 14.5 | 0.00 | 0.00 | 0.00 | 30 | 1016.0 |
| 20260506224608 | 25 | 269 | 1.6 | 11.3 | 0.00 | 0.00 | 0.00 | 31 | 1016.1 |
| 20260506224104 | 25 | 243 | 4.8 | 16.1 | 0.00 | 0.00 | 0.00 | 32 | 1016.1 |
| 20260506223604 | 25 | 296 | 4.8 | 16.1 | 0.00 | 0.00 | 0.00 | 31 | 1016.1 |
| 20260506223104 | 25 | 280 | 8.0 | 16.1 | 0.00 | 0.00 | 0.00 | 31 | 1016.2 |
| 20260506222603 | 25 | 284 | 8.0 | 14.5 | 0.00 | 0.00 | 0.00 | 30 | 1016.2 |
| 20260506222105 | 25 | 288 | 3.2 | 9.7 | 0.00 | 0.00 | 0.00 | 31 | 1016.2 |
| 20260506221604 | 24 | 313 | 3.2 | 16.1 | 0.00 | 0.00 | 0.00 | 32 | 1016.3 |
| 20260506221107 | 24 | 252 | 8.0 | 16.1 | 0.00 | 0.00 | 0.00 | 31 | 1016.6 |
| 20260506220604 | 24 | 272 | 8.0 | 14.5 | 0.00 | 0.00 | 0.00 | 32 | 1016.7 |
| 20260506220104 | 24 | 269 | 8.0 | 16.1 | 0.00 | 0.00 | 0.00 | 32 | 1016.7 |
| 20260506214104 | 24 | 276 | 6.4 | 12.9 | 0.00 | 0.00 | 0.00 | 32 | 1016.9 |
| 20260506213604 | 23 | 298 | 8.0 | 12.9 | 0.00 | 0.00 | 0.00 | 32 | 1017.0 |
| 20260506213104 | 23 | 294 | 4.8 | 12.9 | 0.00 | 0.00 | 0.00 | 32 | 1017.1 |
| 20260506212104 | 23 | 319 | 3.2 | 9.7 | 0.00 | 0.00 | 0.00 | 34 | 1017.3 |
| 20260506211104 | 23 | 249 | 4.8 | 19.3 | 0.00 | 0.00 | 0.00 | 31 | 1017.4 |
| 20260506210604 | 22 | 251 | 8.0 | 19.3 | 0.00 | 0.00 | 0.00 | 34 | 1017.4 |
| 20260506210105 | 22 | 259 | 3.2 | 14.5 | 0.00 | 0.00 | 0.00 | 35 | 1017.4 |
| 20260506205604 | 22 | 275 | 6.4 | 14.5 | 0.00 | 0.00 | 0.00 | 37 | 1017.4 |
| 20260506204603 | 22 | 332 | 4.8 | 12.9 | 0.00 | 0.00 | 0.00 | 35 | 1017.5 |
| 20260506204104 | 22 | 294 | 6.4 | 12.9 | 0.00 | 0.00 | 0.00 | 34 | 1017.5 |
| 20260506202604 | 21 | 290 | 4.8 | 11.3 | 0.00 | 0.00 | 0.00 | 36 | 1017.8 |
| 20260506202107 | 21 | 293 | 3.2 | 11.3 | 0.00 | 0.00 | 0.00 | 38 | 1017.9 |
| 20260506201604 | 21 | 284 | 4.8 | 14.5 | 0.00 | 0.00 | 0.00 | 35 | 1017.9 |
| 20260506201106 | 21 | 299 | 3.2 | 14.5 | 0.00 | 0.00 | 0.00 | 36 | 1018.0 |
| 20260506200604 | 21 | 305 | 4.8 | 14.5 | 0.00 | 0.00 | 0.00 | 39 | 1018.0 |
| 20260506200104 | 20 | 298 | 4.8 | 14.5 | 0.00 | 0.00 | 0.00 | 39 | 1018.1 |
| 20260506195604 | 20 | 259 | 3.2 | 12.9 | 0.00 | 0.00 | 0.00 | 39 | 1018.2 |
| 20260506194604 | 20 | 279 | 8.0 | 12.9 | 0.00 | 0.00 | 0.00 | 40 | 1018.4 |
| 20260506194103 | 20 | 306 | 4.8 | 14.5 | 0.00 | 0.00 | 0.00 | 41 | 1018.4 |
| 20260506193604 | 20 | 309 | 4.8 | 14.5 | 0.00 | 0.00 | 0.00 | 42 | 1018.5 |
| 20260506193105 | 20 | 257 | 9.7 | 14.5 | 0.00 | 0.00 | 0.00 | 43 | 1018.6 |
| 20260506192604 | 20 | 301 | 8.0 | 11.3 | 0.00 | 0.00 | 0.00 | 43 | 1018.6 |
| 20260506192104 | 19 | 271 | 6.4 | 11.3 | 0.00 | 0.00 | 0.00 | 45 | 1018.6 |
| 20260506191105 | 19 | 317 | 9.7 | 14.5 | 0.00 | 0.00 | 0.00 | 45 | 1018.7 |
| 20260506190604 | 18 | 274 | 6.4 | 14.5 | 0.00 | 0.00 | 0.00 | 46 | 1018.7 |
| 20260506190104 | 18 | 257 | 1.6 | 12.9 | 0.00 | 0.00 | 0.00 | 47 | 1018.7 |
| 20260506185604 | 18 | 249 | 3.2 | 12.9 | 0.00 | 0.00 | 0.00 | 47 | 1018.7 |
| 20260506184604 | 18 | 299 | 6.4 | 16.1 | 0.00 | 0.00 | 0.00 | 48 | 1018.9 |
| 20260506184104 | 18 | 318 | 8.0 | 16.1 | 0.00 | 0.00 | 0.00 | 48 | 1018.8 |
| 20260506183604 | 17 | 317 | 3.2 | 11.3 | 0.00 | 0.00 | 0.00 | 48 | 1019.0 |
| 20260506183104 | 17 | 327 | 6.4 | 12.9 | 0.00 | 0.00 | 0.00 | 48 | 1019.1 |
| 20260506182106 | 17 | 291 | 3.2 | 8.0 | 0.00 | 0.00 | 0.00 | 51 | 1019.2 |
| 20260506181604 | 17 | 287 | 3.2 | 12.9 | 0.00 | 0.00 | 0.00 | 50 | 1019.3 |
| 20260506181107 | 17 | 273 | 4.8 | 12.9 | 0.00 | 0.00 | 0.00 | 50 | 1019.4 |
| 20260506180605 | 17 | 315 | 8.0 | 12.9 | 0.00 | 0.00 | 0.00 | 51 | 1019.4 |
| 20260506180104 | 17 | 328 | 1.6 | 11.3 | 0.00 | 0.00 | 0.00 | 50 | 1019.4 |
| 20260506175604 | 16 | 328 | 4.8 | 11.3 | 0.00 | 0.00 | 0.00 | 53 | 1019.4 |
| 20260506175104 | 16 | 300 | 4.8 | 11.3 | 0.00 | 0.00 | 0.00 | 54 | 1019.4 |
| 20260506174604 | 16 | 331 | 4.8 | 11.3 | 0.00 | 0.00 | 0.00 | 53 | 1019.4 |
| 20260506174104 | 16 | 322 | 6.4 | 12.9 | 0.00 | 0.00 | 0.00 | 53 | 1019.4 |
| 20260506173104 | 16 | 267 | 6.4 | 11.3 | 0.00 | 0.00 | 0.00 | 56 | 1019.4 |
| 20260506172604 | 16 | 321 | 3.2 | 11.3 | 0.00 | 0.00 | 0.00 | 55 | 1019.4 |
| 20260506171104 | 15 | 316 | 4.8 | 11.3 | 0.00 | 0.00 | 0.00 | 57 | 1019.4 |
| 20260506170603 | 15 | 280 | 8.0 | 11.3 | 0.00 | 0.00 | 0.00 | 58 | 1019.4 |
| 20260506170104 | 15 | 289 | 6.4 | 9.7 | 0.00 | 0.00 | 0.00 | 58 | 1019.3 |
| 20260506165604 | 15 | 246 | 4.8 | 11.3 | 0.00 | 0.00 | 0.00 | 57 | 1019.3 |
| 20260506165104 | 15 | 285 | 4.8 | 11.3 | 0.00 | 0.00 | 0.00 | 58 | 1019.4 |
| 20260506164604 | 15 | 278 | 6.4 | 9.7 | 0.00 | 0.00 | 0.00 | 57 | 1019.4 |
| 20260506163603 | 14 | 307 | 3.2 | 8.0 | 0.00 | 0.00 | 0.00 | 61 | 1019.3 |
| 20260506163104 | 14 | 314 | 3.2 | 8.0 | 0.00 | 0.00 | 0.00 | 60 | 1019.4 |
| 20260506162604 | 13 | 321 | 4.8 | 8.0 | 0.00 | 0.00 | 0.00 | 61 | 1019.3 |
| 20260506160604 | 13 | 282 | 1.6 | 4.8 | 0.00 | 0.03 | 0.00 | 65 | 1019.4 |
| 20260506160104 | 13 | 282 | 3.2 | 8.0 | 0.00 | 0.03 | 0.00 | 65 | 1019.4 |
| 20260506155605 | 13 | 281 | 4.8 | 8.0 | 0.00 | 0.03 | 0.00 | 66 | 1019.4 |
| 20260506155104 | 13 | 329 | 3.2 | 4.8 | 0.00 | 0.03 | 0.00 | 66 | 1019.3 |
| 20260506154604 | 13 | 329 | 3.2 | 4.8 | 0.00 | 0.03 | 0.00 | 67 | 1019.3 |
| 20260506153603 | 13 | 346 | 1.6 | 4.8 | 0.00 | 0.03 | 0.00 | 69 | 1019.3 |
| 20260506153104 | 12 | 346 | 0.0 | 4.8 | 0.00 | 0.03 | 0.00 | 70 | 1019.2 |
| 20260506152603 | 12 | 346 | 0.0 | 4.8 | 0.00 | 0.03 | 0.00 | 69 | 1019.3 |
| 20260506152104 | 12 | 346 | 0.0 | 4.8 | 0.00 | 0.03 | 0.00 | 70 | 1019.3 |
| 20260506151604 | 12 | 346 | 3.2 | 4.8 | 0.00 | 0.03 | 0.00 | 70 | 1019.3 |
| 20260506151106 | 12 | 117 | 0.0 | 4.8 | 0.00 | 0.03 | 0.00 | 72 | 1019.3 |
| 20260506150604 | 12 | 117 | 0.0 | 1.6 | 0.00 | 0.03 | 0.00 | 72 | 1019.3 |
| 20260506150104 | 11 | 117 | 0.0 | 3.2 | 0.00 | 0.03 | 0.00 | 73 | 1019.2 |
| 20260506145604 | 12 | 117 | 0.0 | 3.2 | 0.00 | 0.03 | 0.00 | 73 | 1019.3 |
| 20260506145104 | 12 | 115 | 0.0 | 1.6 | 0.00 | 0.03 | 0.00 | 75 | 1019.3 |
| 20260506144604 | 12 | 115 | 0.0 | 0.0 | 0.00 | 0.03 | 0.00 | 78 | 1019.3 |
| 20260506144103 | 11 | 115 | 0.0 | 0.0 | 0.00 | 0.03 | 0.00 | 80 | 1019.2 |
| 20260506143604 | 11 | 115 | 0.0 | 0.0 | 0.00 | 0.05 | 0.00 | 81 | 1019.1 |
| 20260506143104 | 10 | 115 | 0.0 | 1.6 | 0.00 | 0.08 | 0.00 | 83 | 1019.1 |
| 20260506142605 | 10 | 115 | 0.0 | 3.2 | 0.00 | 0.08 | 0.00 | 84 | 1019.1 |
| 20260506142104 | 10 | 115 | 0.0 | 3.2 | 0.00 | 0.10 | 0.00 | 85 | 1019.0 |
| 20260506141605 | 9 | 117 | 1.6 | 1.6 | 0.00 | 0.10 | 0.00 | 86 | 1019.0 |
| 20260506141107 | 9 | 120 | 0.0 | 1.6 | 0.00 | 0.15 | 0.00 | 87 | 1019.0 |
| 20260506140603 | 8 | 120 | 0.0 | 1.6 | 0.00 | 0.15 | 0.00 | 87 | 1019.0 |
| 20260506135604 | 8 | 120 | 0.0 | 3.2 | 0.00 | 0.15 | 0.00 | 87 | 1018.9 |
| 20260506135104 | 8 | 120 | 0.0 | 3.2 | 0.00 | 0.18 | 0.00 | 87 | 1018.9 |
| 20260506134604 | 8 | 123 | 0.0 | 3.2 | 0.00 | 0.18 | 0.00 | 87 | 1018.9 |
| 20260506134104 | 7 | 146 | 0.0 | 3.2 | 0.00 | 0.18 | 0.00 | 87 | 1018.9 |
| 20260506133604 | 7 | 146 | 0.0 | 1.6 | 0.00 | 0.18 | 0.00 | 87 | 1018.8 |
| 20260506133104 | 7 | 146 | 0.0 | 1.6 | 0.00 | 0.20 | 0.00 | 87 | 1018.8 |
| 20260506132604 | 7 | 146 | 0.0 | 3.2 | 0.00 | 0.20 | 0.00 | 87 | 1018.8 |
| 20260506132104 | 7 | 146 | 0.0 | 3.2 | 0.00 | 0.23 | 0.00 | 88 | 1018.8 |
| 20260506130605 | 7 | 149 | 1.6 | 3.2 | 0.00 | 0.30 | 0.00 | 88 | 1018.7 |
| 20260506130104 | 7 | 149 | 0.0 | 3.2 | 0.00 | 0.33 | 0.00 | 87 | 1018.7 |
| 20260506125104 | 7 | 149 | 0.0 | 3.2 | 0.00 | 0.33 | 0.00 | 87 | 1018.5 |
| 20260506124604 | 7 | 150 | 0.0 | 3.2 | 0.00 | 0.33 | 0.00 | 87 | 1018.4 |
| 20260506123604 | 7 | 150 | 0.0 | 3.2 | 0.00 | 0.33 | 0.00 | 87 | 1018.4 |
| 20260506123104 | 7 | 150 | 1.6 | 3.2 | 0.00 | 0.33 | 0.00 | 87 | 1018.4 |
| 20260506122604 | 7 | 150 | 1.6 | 3.2 | 0.00 | 0.33 | 0.00 | 87 | 1018.4 |
| 20260506122104 | 7 | 151 | 1.6 | 3.2 | 0.00 | 0.33 | 0.00 | 87 | 1018.4 |
| 20260506121604 | 7 | 151 | 1.6 | 3.2 | 0.00 | 0.33 | 0.00 | 86 | 1018.4 |
| 20260506121106 | 7 | 151 | 0.0 | 1.6 | 0.00 | 0.33 | 0.00 | 87 | 1018.4 |
| 20260506120604 | 7 | 151 | 0.0 | 1.6 | 0.00 | 0.36 | 0.00 | 87 | 1018.4 |
| 20260506120104 | 7 | 151 | 0.0 | 1.6 | 0.00 | 0.36 | 0.00 | 87 | 1018.4 |
| 20260506115604 | 7 | 151 | 0.0 | 1.6 | 0.00 | 0.36 | 0.00 | 87 | 1018.4 |
| 20260506115104 | 7 | 151 | 0.0 | 1.6 | 0.00 | 0.36 | 0.00 | 87 | 1018.4 |
| 20260506114604 | 7 | 151 | 0.0 | 1.6 | 0.00 | 0.36 | 0.00 | 87 | 1018.4 |
| 20260506114104 | 7 | 151 | 0.0 | 1.6 | 0.00 | 0.38 | 0.00 | 87 | 1018.4 |
| 20260506113604 | 7 | 151 | 0.0 | 1.6 | 0.00 | 0.38 | 0.00 | 86 | 1018.4 |
| 20260506113104 | 7 | 151 | 0.0 | 1.6 | 0.00 | 0.38 | 0.00 | 86 | 1018.4 |
| 20260506112605 | 7 | 151 | 0.0 | 3.2 | 0.00 | 0.38 | 0.00 | 86 | 1018.4 |
| 20260506111604 | 7 | 151 | 0.0 | 3.2 | 0.00 | 0.38 | 0.00 | 85 | 1018.4 |
| 20260506110604 | 8 | 152 | 1.6 | 3.2 | 0.00 | 0.38 | 0.00 | 85 | 1018.4 |
| 20260506110104 | 8 | 155 | 1.6 | 3.2 | 0.00 | 0.38 | 0.00 | 85 | 1018.4 |
| 20260506105605 | 8 | 154 | 1.6 | 3.2 | 0.00 | 0.38 | 0.00 | 85 | 1018.4 |
| 20260506105104 | 8 | 155 | 0.0 | 1.6 | 0.00 | 0.38 | 0.00 | 85 | 1018.4 |
| 20260506104604 | 8 | 156 | 0.0 | 1.6 | 0.00 | 0.38 | 0.00 | 84 | 1018.4 |
| 20260506104104 | 8 | 156 | 0.0 | 3.2 | 0.00 | 0.38 | 0.00 | 84 | 1018.4 |
| 20260506103604 | 8 | 156 | 1.6 | 3.2 | 0.00 | 0.38 | 0.00 | 85 | 1018.4 |
| 20260506103104 | 8 | 156 | 0.0 | 3.2 | 0.00 | 0.38 | 0.00 | 84 | 1018.3 |
| 20260506102604 | 8 | 157 | 1.6 | 3.2 | 0.00 | 0.38 | 0.00 | 84 | 1018.3 |
| 20260506101606 | 8 | 169 | 1.6 | 3.2 | 0.00 | 0.38 | 0.00 | 83 | 1018.2 |
| 20260506101106 | 9 | 170 | 0.0 | 3.2 | 0.00 | 0.38 | 0.00 | 83 | 1018.2 |
| 20260506100604 | 9 | 171 | 1.6 | 3.2 | 0.00 | 0.38 | 0.00 | 83 | 1018.2 |
| 20260506100104 | 9 | 176 | 1.6 | 3.2 | 0.00 | 0.38 | 0.00 | 83 | 1018.2 |
| 20260506095604 | 9 | 180 | 1.6 | 3.2 | 0.00 | 0.38 | 0.00 | 83 | 1018.3 |
| 20260506094604 | 9 | 184 | 0.0 | 0.0 | 0.00 | 0.38 | 0.00 | 83 | 1018.3 |
| 20260506094104 | 9 | 184 | 0.0 | 1.6 | 0.00 | 0.38 | 0.00 | 82 | 1018.2 |
| 20260506093604 | 9 | 184 | 0.0 | 1.6 | 0.00 | 0.38 | 0.00 | 82 | 1018.3 |
| 20260506092604 | 10 | 184 | 0.0 | 0.0 | 0.00 | 0.38 | 0.00 | 81 | 1018.2 |
| 20260506091604 | 10 | 184 | 0.0 | 0.0 | 0.00 | 0.38 | 0.00 | 81 | 1018.3 |
| 20260506091104 | 10 | 184 | 0.0 | 0.0 | 0.00 | 0.38 | 0.00 | 81 | 1018.3 |
| 20260506090604 | 10 | 184 | 0.0 | 0.0 | 0.00 | 0.38 | 0.00 | 81 | 1018.3 |
| 20260506090104 | 10 | 184 | 0.0 | 0.0 | 0.00 | 0.38 | 0.00 | 81 | 1018.3 |
| 20260506085104 | 10 | 184 | 0.0 | 1.6 | 0.00 | 0.41 | 0.00 | 80 | 1018.3 |
| 20260506084604 | 10 | 184 | 0.0 | 1.6 | 0.00 | 0.43 | 0.00 | 80 | 1018.4 |
| 20260506084104 | 10 | 184 | 0.0 | 1.6 | 0.00 | 0.43 | 0.00 | 79 | 1018.4 |
| 20260506083604 | 10 | 184 | 0.0 | 0.0 | 0.00 | 0.43 | 0.00 | 79 | 1018.5 |
| 20260506082604 | 10 | 184 | 0.0 | 0.0 | 0.00 | 0.43 | 0.00 | 79 | 1018.7 |
| 20260506082106 | 11 | 184 | 0.0 | 0.0 | 0.00 | 0.43 | 0.00 | 78 | 1018.7 |
| 20260506081606 | 11 | 184 | 0.0 | 1.6 | 0.00 | 0.43 | 0.00 | 78 | 1018.7 |
| 20260506081107 | 11 | 184 | 0.0 | 1.6 | 0.00 | 0.43 | 0.00 | 78 | 1018.7 |
| 20260506080604 | 11 | 184 | 0.0 | 1.6 | 0.00 | 0.43 | 0.00 | 78 | 1018.7 |
| 20260506073104 | 11 | 184 | 0.0 | 1.6 | 0.00 | 0.46 | 0.00 | 78 | 1018.9 |
| 20260506072604 | 11 | 184 | 0.0 | 3.2 | 0.00 | 0.53 | 0.00 | 77 | 1018.9 |
| 20260506072105 | 11 | 184 | 0.0 | 3.2 | 0.00 | 0.58 | 0.00 | 77 | 1018.8 |
| 20260506071604 | 11 | 190 | 0.0 | 3.2 | 0.00 | 0.58 | 0.00 | 76 | 1018.9 |
| 20260506071104 | 11 | 191 | 0.0 | 1.6 | 0.00 | 0.58 | 0.00 | 76 | 1018.9 |
| 20260506070604 | 11 | 191 | 0.0 | 1.6 | 0.00 | 0.58 | 0.00 | 76 | 1018.9 |
| 20260506070104 | 11 | 191 | 0.0 | 3.2 | 0.00 | 0.58 | 0.00 | 75 | 1018.8 |
| 20260506062105 | 11 | 164 | 0.0 | 3.2 | 0.00 | 0.58 | 0.58 | 72 | 1018.5 |
| 20260506061604 | 11 | 176 | 1.6 | 3.2 | 0.00 | 0.58 | 0.58 | 72 | 1018.4 |
| 20260506061105 | 11 | 204 | 0.0 | 3.2 | 0.00 | 0.58 | 0.58 | 72 | 1018.5 |
| 20260506060603 | 11 | 162 | 1.6 | 4.8 | 0.00 | 0.58 | 0.58 | 72 | 1018.4 |
| 20260506060104 | 11 | 191 | 0.0 | 4.8 | 0.00 | 0.58 | 0.58 | 72 | 1018.4 |
| 20260506051104 | 11 | 163 | 1.6 | 3.2 | 0.00 | 0.58 | 0.58 | 74 | 1017.9 |
| 20260506050604 | 11 | 152 | 0.0 | 3.2 | 0.00 | 0.58 | 0.58 | 73 | 1017.8 |
| 20260506050105 | 11 | 168 | 0.0 | 3.2 | 0.00 | 0.58 | 0.58 | 73 | 1017.7 |
| 20260506044604 | 12 | 171 | 0.0 | 1.6 | 0.00 | 0.58 | 0.58 | 71 | 1017.6 |
| 20260506044104 | 12 | 178 | 0.0 | 1.6 | 0.00 | 0.58 | 0.58 | 71 | 1017.6 |
| 20260506043604 | 12 | 177 | 0.0 | 1.6 | 0.00 | 0.58 | 0.58 | 70 | 1017.6 |
| 20260506043103 | 12 | 172 | 0.0 | 1.6 | 0.00 | 0.58 | 0.58 | 69 | 1017.6 |
| 20260506042603 | 12 | 182 | 0.0 | 1.6 | 0.00 | 0.58 | 0.58 | 69 | 1017.5 |
| 20260506042106 | 12 | 182 | 0.0 | 1.6 | 0.00 | 0.58 | 0.58 | 69 | 1017.4 |
| 20260506041604 | 12 | 173 | 0.0 | 3.2 | 0.00 | 0.58 | 0.58 | 68 | 1017.2 |
| 20260506041106 | 12 | 173 | 0.0 | 3.2 | 0.00 | 0.58 | 0.58 | 69 | 1017.1 |
| 20260506040604 | 12 | 167 | 0.0 | 1.6 | 0.00 | 0.58 | 0.58 | 68 | 1017.1 |
| 20260506040104 | 12 | 168 | 0.0 | 0.0 | 0.00 | 0.58 | 0.58 | 67 | 1017.1 |
| 20260506035604 | 12 | 168 | 0.0 | 1.6 | 0.00 | 0.58 | 0.58 | 67 | 1017.1 |
| 20260506034603 | 12 | 167 | 0.0 | 1.6 | 0.00 | 0.58 | 0.58 | 67 | 1016.9 |
| 20260506034104 | 12 | 167 | 0.0 | 1.6 | 0.00 | 0.58 | 0.58 | 66 | 1016.8 |
| 20260506033604 | 12 | 167 | 0.0 | 1.6 | 0.00 | 0.58 | 0.58 | 66 | 1016.8 |
| 20260506033104 | 12 | 167 | 0.0 | 1.6 | 0.00 | 0.58 | 0.58 | 66 | 1016.7 |
| 20260506032604 | 12 | 167 | 0.0 | 3.2 | 0.00 | 0.58 | 0.58 | 66 | 1016.6 |
| 20260506031604 | 12 | 168 | 0.0 | 1.6 | 0.00 | 0.58 | 0.58 | 65 | 1016.5 |
| 20260506031106 | 12 | 168 | 0.0 | 1.6 | 0.00 | 0.58 | 0.58 | 65 | 1016.5 |
| 20260506030104 | 12 | 168 | 0.0 | 1.6 | 0.00 | 0.58 | 0.58 | 65 | 1016.5 |
| 20260506025603 | 12 | 170 | 0.0 | 3.2 | 0.00 | 0.58 | 0.58 | 65 | 1016.4 |
| 20260506025104 | 12 | 170 | 0.0 | 3.2 | 0.00 | 0.58 | 0.58 | 66 | 1016.2 |
| 20260506024605 | 12 | 161 | 1.6 | 3.2 | 0.00 | 0.58 | 0.58 | 66 | 1016.0 |
| 20260506024104 | 12 | 238 | 1.6 | 3.2 | 0.00 | 0.58 | 0.58 | 66 | 1016.0 |
| 20260506023604 | 12 | 261 | 0.0 | 3.2 | 0.00 | 0.58 | 0.58 | 67 | 1016.0 |
| 20260506023104 | 12 | 259 | 1.6 | 4.8 | 0.00 | 0.58 | 0.58 | 67 | 1016.0 |
| 20260506022604 | 12 | 247 | 1.6 | 4.8 | 0.00 | 0.58 | 0.58 | 66 | 1015.9 |
| 20260506022104 | 12 | 329 | 1.6 | 4.8 | 0.00 | 0.58 | 0.58 | 66 | 1015.9 |
| 20260506021106 | 12 | 250 | 1.6 | 4.8 | 0.00 | 0.58 | 0.58 | 66 | 1015.7 |
| 20260506020605 | 12 | 274 | 1.6 | 4.8 | 0.00 | 0.58 | 0.58 | 66 | 1015.5 |
| 20260506020104 | 13 | 261 | 1.6 | 4.8 | 0.00 | 0.58 | 0.58 | 66 | 1015.4 |
| 20260506015604 | 13 | 261 | 1.6 | 9.7 | 0.00 | 0.58 | 0.58 | 65 | 1015.4 |
| 20260506014104 | 13 | 300 | 3.2 | 11.3 | 0.00 | 0.58 | 0.58 | 64 | 1015.2 |
| 20260506013604 | 13 | 273 | 3.2 | 11.3 | 0.00 | 0.58 | 0.58 | 64 | 1015.0 |
| 20260506013105 | 13 | 266 | 3.2 | 8.0 | 0.00 | 0.58 | 0.58 | 64 | 1014.9 |
| 20260506012605 | 13 | 303 | 3.2 | 8.0 | 0.00 | 0.58 | 0.58 | 63 | 1014.9 |
| 20260506012104 | 13 | 331 | 3.2 | 8.0 | 0.00 | 0.58 | 0.58 | 62 | 1014.8 |
| 20260506011605 | 13 | 266 | 1.6 | 4.8 | 0.00 | 0.58 | 0.58 | 62 | 1014.8 |
| 20260506011106 | 13 | 280 | 3.2 | 4.8 | 0.00 | 0.58 | 0.58 | 61 | 1014.8 |
| 20260506010603 | 13 | 285 | 3.2 | 8.0 | 0.00 | 0.58 | 0.58 | 60 | 1014.8 |
| 20260506010104 | 14 | 286 | 3.2 | 8.0 | 0.00 | 0.58 | 0.58 | 60 | 1014.8 |
| 20260506005604 | 14 | 274 | 3.2 | 11.3 | 0.00 | 0.58 | 0.58 | 59 | 1014.8 |
| 20260506005103 | 14 | 284 | 4.8 | 11.3 | 0.00 | 0.58 | 0.58 | 58 | 1014.7 |
| 20260506004604 | 14 | 316 | 4.8 | 16.1 | 0.00 | 0.58 | 0.58 | 57 | 1014.7 |